DIRECTV 14

Last updated on Sun Oct 06 2024 00:02:40 GMT+0000 (Coordinated Universal Time)

1 40333U 14078B 24277.94795234 -.00000119 00000+0 00000+0 0 9998 2 40333 0.0283 280.1652 0000483 155.9345 179.0797 1.00272457 36017
UTC large
Height (km)
Speed (km/s)
/
Latitude / Longitude
Inclination (degrees)
Orbital Period (minutes)
Azimuth
Elevation
Range (km)
Doppler Factor

Next 0 passes for location: London (51.5072 / 0.1276)

Sorry there are no passes over London.